Content
SEND FEEDBACK

Daily
Averages
Monthly
Summary
United States of America

ROSE CITY, TEXAS


Home > North America > United States > Texas
Elevation: 20 feet     Latitude: 30 05N     Longitude: 094 06W

WEATHER
 
SELECT A DAY
Number of Records: 76,416;   Date Range: 3/9/11 - 10/30/14
 
SHARE

PRINT THIS DATA

[ ← Previous Day ]
WEATHER ALMANAC - FEBRUARY 13, 2013
[ Next Day → ]
[ °C ]   °F
Weather ElementAverageHighLow
Temperature51.3 °F59 °F (1:55 pm)41 °F (11:55 pm)
Dewpoint36.6 °F44.6 °F (12:35 am)30.2 °F (4:35 pm)
Humidity59.1 %87 % (11:55 pm)34 % (4:35 pm)
Barometer30.05 in30.11 in (9:35 am)29.98 in (12:35 am)
Wind Speed7.5 mph15 mph (11:15 am)
Wind Gust18.4 mph (9:15 am)
Weather ElementAverage
Visibility10 mi
Wind DirectionWSW (243 °)

Weather ElementTotal
Precipitation---
Heating Degree Days15 (Base 65)
Averaged from 70 records on February 13, 2013
WEATHER CONDITIONS BREAKOUT
WIND DIRECTION BREAKOUT
WEATHER BY HOUR - FEBRUARY 13, 2013
[ °C ]   °F
Local TimeTemperatureDewpointHumidityBarometerVisibilityWind DirectionWind SpeedGust SpeedPrecipitationEventsConditions
12:35 AM53.6 °F44.6 °F72 %29.98 in10.0 miNW (320°)9.2 mphMostly Cloudy
12:55 AM53.6 °F44.6 °F72 %30.00 in10.0 miWNW (300°)6.9 mphMostly Cloudy
1:15 AM53.6 °F42.8 °F67 %29.99 in10.0 miNW (320°)9.2 mph16.1 mphRainLight Rain
1:35 AM51.8 °F42.8 °F71 %30.00 in10.0 miNW (320°)10.4 mphOvercast
1:55 AM51.8 °F42.8 °F71 %29.98 in10.0 miNNW (340°)9.2 mphOvercast
2:15 AM51.8 °F41.0 °F67 %30.00 in10.0 miNNW (330°)6.9 mphRainLight Rain
2:35 AM51.8 °F41.0 °F67 %30.02 in10.0 miNW (320°)5.8 mphRainLight Rain
2:55 AM51.8 °F41.0 °F67 %30.03 in10.0 miWNW (300°)5.8 mphOvercast
3:15 AM51.8 °F41.0 °F67 %30.02 in10.0 miNW (320°)10.4 mphOvercast
3:35 AM51.8 °F41.0 °F67 %30.00 in10.0 miNNW (340°)8.1 mphRainLight Rain
3:55 AM50.0 °F41.0 °F71 %30.02 in10.0 miNorth (350°)6.9 mphOvercast
4:15 AM50.0 °F41.0 °F71 %30.01 in10.0 miNorth (350°)4.6 mphOvercast
4:35 AM50.0 °F41.0 °F71 %30.01 in10.0 miNNW (340°)5.8 mphMostly Cloudy
4:55 AM50.0 °F41.0 °F71 %30.02 in10.0 miNNW (340°)4.6 mphMostly Cloudy
5:15 AM50.0 °F41.0 °F71 %30.02 in10.0 miNNW (330°)6.9 mphScattered Clouds
5:35 AM50.0 °F41.0 °F71 %30.03 in10.0 miNNW (330°)4.6 mphMostly Cloudy
5:55 AM50.0 °F41.0 °F71 %30.05 in10.0 miWNW (300°)4.6 mphOvercast
6:15 AM50.0 °F41.0 °F71 %30.05 in10.0 miNW (320°)5.8 mphOvercast
6:35 AM50.0 °F41.0 °F71 %30.07 in10.0 miNW (310°)6.9 mphOvercast
6:55 AM50.0 °F39.2 °F66 %30.08 in10.0 miWNW (300°)10.4 mphOvercast
7:15 AM48.2 °F37.4 °F66 %30.09 in10.0 miWNW (300°)10.4 mphOvercast
7:35 AM48.2 °F37.4 °F66 %30.08 in10.0 miNW (320°)8.1 mphOvercast
7:55 AM48.2 °F37.4 °F66 %30.09 in10.0 miNW (310°)9.2 mphOvercast
8:15 AM48.2 °F37.4 °F66 %30.09 in10.0 miNW (320°)9.2 mphOvercast
8:55 AM48.2 °F37.4 °F66 %30.08 in10.0 miNNW (340°)12.7 mphScattered Clouds
9:15 AM48.2 °F37.4 °F66 %30.08 in10.0 miNorth (350°)12.7 mph18.4 mphClear
9:35 AM50.0 °F35.6 °F58 %30.11 in10.0 miNNW (340°)12.7 mphScattered Clouds
9:55 AM50.0 °F35.6 °F58 %30.10 in10.0 miNorth (350°)12.7 mph17.3 mphScattered Clouds
10:15 AM50.0 °F33.8 °F54 %30.09 in10.0 miNNW (340°)12.7 mphClear
10:35 AM50.0 °F33.8 °F54 %30.10 in10.0 miNorth (350°)11.5 mphClear
10:55 AM51.8 °F35.6 °F54 %30.08 in10.0 miNNW (340°)10.4 mphClear
11:15 AM51.8 °F33.8 °F50 %30.08 in10.0 miNNW (340°)15.0 mphClear
11:35 AM53.6 °F33.8 °F47 %30.08 in10.0 miNorth (350°)11.5 mph18.4 mphClear
11:55 AM55.4 °F33.8 °F44 %30.07 in10.0 miNorth (360°)13.8 mphClear
12:15 PM53.6 °F33.8 °F47 %30.08 in10.0 miNNW (340°)9.2 mph18.4 mphClear
12:35 PM53.6 °F32.0 °F44 %30.07 in10.0 miNorth (350°)10.4 mphClear
12:55 PM55.4 °F33.8 °F44 %30.07 in10.0 miNorth (10°)12.7 mph16.1 mphScattered Clouds
1:15 PM55.4 °F33.8 °F44 %30.05 in10.0 miNorth (350°)9.2 mphClear
1:35 PM57.2 °F33.8 °F41 %30.05 in10.0 miNorth (10°)10.4 mphClear
1:55 PM59.0 °F33.8 °F39 %30.04 in10.0 miNorth (350°)9.2 mphClear
2:15 PM59.0 °F32.0 °F36 %30.03 in10.0 miNorth (10°)10.4 mph16.1 mphClear
2:35 PM59.0 °F32.0 °F36 %30.03 in10.0 miNNW (340°)12.7 mphClear
2:55 PM59.0 °F32.0 °F36 %30.03 in10.0 miNorth (360°)9.2 mphClear
3:15 PM59.0 °F32.0 °F36 %30.03 in10.0 miNorth (350°)12.7 mphClear
3:35 PM59.0 °F32.0 °F36 %30.02 in10.0 miNorth (360°)9.2 mphClear
3:55 PM59.0 °F32.0 °F36 %30.02 in10.0 miNorth (350°)9.2 mphClear
4:15 PM59.0 °F32.0 °F36 %30.03 in10.0 miNNW (340°)11.5 mphClear
4:35 PM59.0 °F30.2 °F34 %30.03 in10.0 miNNW (340°)9.2 mphClear
4:55 PM59.0 °F32.0 °F36 %30.03 in10.0 miNorth (10°)8.1 mphClear
5:15 PM57.2 °F32.0 °F38 %30.03 in10.0 miNorth (360°)8.1 mphClear
5:35 PM55.4 °F32.0 °F41 %30.04 in10.0 miNorth (350°)8.1 mphClear
5:55 PM53.6 °F33.8 °F47 %30.05 in10.0 miNorth (350°)5.8 mphClear
6:15 PM51.8 °F33.8 °F50 %30.05 in10.0 miNorth (360°)4.6 mphClear
6:35 PM51.8 °F35.6 °F54 %30.05 in10.0 miNorth (360°)3.5 mphClear
6:55 PM51.8 °F35.6 °F54 %30.06 in10.0 miCalmClear
7:15 PM50.0 °F35.6 °F58 %30.07 in10.0 miNNE (20°)3.5 mphClear
7:35 PM50.0 °F35.6 °F58 %30.07 in10.0 miNNE (20°)4.6 mphClear
7:55 PM50.0 °F35.6 °F58 %30.07 in10.0 miNNE (20°)3.5 mphClear
8:15 PM46.4 °F35.6 °F66 %30.08 in10.0 miNorth (10°)3.5 mphClear
8:35 PM46.4 °F35.6 °F66 %30.08 in10.0 miNNE (20°)3.5 mphClear
8:55 PM44.6 °F35.6 °F71 %30.08 in10.0 miCalmClear
9:15 PM44.6 °F37.4 °F76 %30.09 in10.0 miCalmClear
9:35 PM44.6 °F35.6 °F71 %30.09 in10.0 miCalmClear
9:55 PM42.8 °F37.4 °F81 %30.09 in10.0 miNNE (20°)3.5 mphClear
10:15 PM44.6 °F37.4 °F76 %30.10 in10.0 miNNE (30°)4.6 mphClear
10:35 PM44.6 °F35.6 °F71 %30.10 in10.0 miNNE (20°)4.6 mphClear
10:55 PM42.8 °F35.6 °F76 %30.10 in10.0 miNorth (10°)4.6 mphClear
11:15 PM42.8 °F35.6 °F76 %30.10 in10.0 miCalmClear
11:35 PM42.8 °F35.6 °F76 %30.10 in10.0 miCalmClear
11:55 PM41.0 °F37.4 °F87 %30.10 in10.0 miCalmClear
Hourly data recorded from KBMT, located miles away from Rose City, Texas







STORIES FROM OUR PARTNERS